^^

..:: Storico WU ::..




Lo storico viene creato da WUnderground con i dati che la stazione Meteomincio invia al loro server. L' aggiornamento viene fatto ogni 5 minuti circa, tuttavia possono esserci intervalli pił ampi a causa di errori, interruzioni di servizio o problemi nell' invio tramite FTP.


Storico stazione MeteoMincio
Giorno Sommario per Marzo 08, 2022 Unità:  Inglese    Metrico   Entrambi
Giorno Settimana Mese Anno
  Max: Min: Media:
Temperatura: 50 °F 32 °F 41.5 °F
Dew Point: 30.2 °F 23 °F 27.5 °F
Umidità: 78% 41% 59%
Velocità vento: 14.9mph 0.6mph 4.6mph
Raffica: 21.1mph - -
Direzione- - SSE
Pressione: 30.3 in 30.2 in -
Precipitazioni: 0 in    
 
 
Tabulato Dati per Marzo 08, 2022
Ora Temperatura Dew Point Pressione Direzione Velocità vento Raffica Umidità Intensità pioggia (oraria) Info solare Situazione
00:04 35.6 °F 28.4 °F 30.2 in ENE 7.5 mph 11.8 mph 78% 0 in 0.00 W/m2 unknown
00:09 35.6 °F 28.4 °F 30.2 in East 6.8 mph 11.8 mph 77% 0 in 0.00 W/m2 unknown
00:14 35.6 °F 28.4 °F 30.2 in East 6.2 mph 10.6 mph 77% 0 in 0.00 W/m2 unknown
00:19 35.6 °F 28.4 °F 30.2 in East 6.2 mph 9.9 mph 76% 0 in 0.00 W/m2 unknown
00:24 35.6 °F 28.4 °F 30.2 in East 5.6 mph 8.1 mph 75% 0 in 0.00 W/m2 unknown
00:29 35.6 °F 28.4 °F 30.2 in East 5.6 mph 8.1 mph 75% 0 in 0.00 W/m2 unknown
00:34 35.6 °F 28.4 °F 30.2 in East 5.6 mph 8.1 mph 75% 0 in 0.00 W/m2 unknown
00:39 35.6 °F 28.4 °F 30.2 in ENE 6.8 mph 8.1 mph 74% 0 in 0.00 W/m2 unknown
00:44 35.6 °F 28.4 °F 30.2 in ENE 5.6 mph 8.1 mph 74% 0 in 0.00 W/m2 unknown
00:49 35.6 °F 28.4 °F 30.2 in ENE 6.2 mph 8.1 mph 74% 0 in 0.00 W/m2 unknown
00:54 35.6 °F 28.4 °F 30.2 in East 5.6 mph 8.1 mph 74% 0 in 0.00 W/m2 unknown
00:59 35.6 °F 28.4 °F 30.2 in ENE 5 mph 8.1 mph 74% 0 in 0.00 W/m2 unknown
01:04 35.6 °F 28.4 °F 30.2 in East 5.6 mph 8.1 mph 74% 0 in 0.00 W/m2 unknown
01:09 35.6 °F 28.4 °F 30.2 in ENE 6.2 mph 8.1 mph 74% 0 in 0.00 W/m2 unknown
01:14 35.6 °F 28.4 °F 30.2 in ENE 5.6 mph 8.1 mph 74% 0 in 0.00 W/m2 unknown
01:19 35.6 °F 28.4 °F 30.2 in ENE 6.2 mph 8.1 mph 74% 0 in 0.00 W/m2 unknown
01:24 35.6 °F 28.4 °F 30.2 in ENE 5.6 mph 8.1 mph 74% 0 in 0.00 W/m2 unknown
01:29 37.4 °F 28.4 °F 30.2 in ENE 6.2 mph 8.1 mph 74% 0 in 0.00 W/m2 unknown
01:34 37.4 °F 28.4 °F 30.2 in ENE 6.2 mph 8.1 mph 73% 0 in 0.00 W/m2 unknown
01:39 37.4 °F 28.4 °F 30.2 in ENE 7.5 mph 9.3 mph 73% 0 in 0.00 W/m2 unknown
01:44 37.4 °F 28.4 °F 30.2 in ENE 6.8 mph 9.3 mph 73% 0 in 0.00 W/m2 unknown
01:49 37.4 °F 28.4 °F 30.2 in ENE 8.1 mph 11.2 mph 73% 0 in 0.00 W/m2 unknown
01:54 37.4 °F 28.4 °F 30.2 in ENE 8.7 mph 11.8 mph 72% 0 in 0.00 W/m2 unknown
01:59 37.4 °F 28.4 °F 30.2 in ENE 9.3 mph 13 mph 72% 0 in 0.00 W/m2 unknown
02:04 37.4 °F 28.4 °F 30.2 in ENE 9.9 mph 13 mph 71% 0 in 0.00 W/m2 unknown
02:09 37.4 °F 28.4 °F 30.2 in ENE 9.3 mph 13 mph 71% 0 in 0.00 W/m2 unknown
02:14 37.4 °F 30.2 °F 30.2 in ENE 9.3 mph 14.3 mph 70% 0 in 0.00 W/m2 unknown
02:19 39.2 °F 30.2 °F 30.2 in ENE 9.3 mph 14.3 mph 70% 0 in 0.00 W/m2 unknown
02:24 39.2 °F 30.2 °F 30.2 in ENE 9.3 mph 14.3 mph 70% 0 in 0.00 W/m2 unknown
02:29 39.2 °F 30.2 °F 30.2 in East 11.2 mph 16.2 mph 70% 0 in 0.00 W/m2 unknown
02:34 39.2 °F 30.2 °F 30.2 in ENE 12.4 mph 16.2 mph 69% 0 in 0.00 W/m2 unknown
02:39 39.2 °F 30.2 °F 30.2 in ENE 11.2 mph 16.2 mph 69% 0 in 0.00 W/m2 unknown
02:44 39.2 °F 30.2 °F 30.2 in ENE 11.2 mph 17.4 mph 69% 0 in 0.00 W/m2 unknown
02:49 39.2 °F 28.4 °F 30.2 in ENE 11.2 mph 16.8 mph 68% 0 in 0.00 W/m2 unknown
02:54 39.2 °F 28.4 °F 30.2 in ENE 12.4 mph 18 mph 68% 0 in 0.00 W/m2 unknown
02:59 39.2 °F 28.4 °F 30.2 in ENE 14.9 mph 21.1 mph 68% 0 in 0.00 W/m2 unknown
03:04 39.2 °F 28.4 °F 30.2 in ENE 13 mph 21.1 mph 67% 0 in 0.00 W/m2 unknown
03:09 39.2 °F 28.4 °F 30.2 in East 11.8 mph 18.6 mph 67% 0 in 0.00 W/m2 unknown
03:14 39.2 °F 28.4 °F 30.2 in East 11.8 mph 18 mph 67% 0 in 0.00 W/m2 unknown
03:19 39.2 °F 28.4 °F 30.2 in East 9.9 mph 14.9 mph 67% 0 in 0.00 W/m2 unknown
03:24 39.2 °F 28.4 °F 30.2 in East 9.3 mph 14.9 mph 67% 0 in 0.00 W/m2 unknown
03:29 39.2 °F 28.4 °F 30.2 in East 8.1 mph 14.3 mph 67% 0 in 0.00 W/m2 unknown
03:34 39.2 °F 28.4 °F 30.2 in East 7.5 mph 10.6 mph 68% 0 in 0.00 W/m2 unknown
03:39 39.2 °F 28.4 °F 30.2 in East 7.5 mph 10.6 mph 68% 0 in 0.00 W/m2 unknown
03:44 39.2 °F 28.4 °F 30.2 in East 6.8 mph 9.9 mph 68% 0 in 0.00 W/m2 unknown
03:49 39.2 °F 28.4 °F 30.2 in East 7.5 mph 10.6 mph 68% 0 in 0.00 W/m2 unknown
03:54 39.2 °F 28.4 °F 30.2 in ENE 7.5 mph 9.9 mph 68% 0 in 0.00 W/m2 unknown
03:59 39.2 °F 28.4 °F 30.2 in ENE 8.1 mph 11.8 mph 68% 0 in 0.00 W/m2 unknown
04:04 39.2 °F 28.4 °F 30.2 in East 8.1 mph 11.8 mph 68% 0 in 0.00 W/m2 unknown
04:09 39.2 °F 28.4 °F 30.2 in East 10.6 mph 13 mph 67% 0 in 0.00 W/m2 unknown
04:14 39.2 °F 28.4 °F 30.2 in East 9.3 mph 16.2 mph 67% 0 in 0.00 W/m2 unknown
04:19 39.2 °F 28.4 °F 30.2 in ENE 9.3 mph 16.2 mph 66% 0 in 0.00 W/m2 unknown
04:24 39.2 °F 28.4 °F 30.2 in ENE 8.7 mph 16.2 mph 66% 0 in 0.00 W/m2 unknown
04:29 39.2 °F 28.4 °F 30.2 in ENE 8.7 mph 13 mph 66% 0 in 0.00 W/m2 unknown
04:34 39.2 °F 28.4 °F 30.2 in ENE 6.8 mph 11.8 mph 65% 0 in 0.00 W/m2 unknown
04:39 39.2 °F 28.4 °F 30.2 in ENE 6.2 mph 11.8 mph 66% 0 in 0.00 W/m2 unknown
04:44 39.2 °F 28.4 °F 30.2 in ENE 6.2 mph 11.8 mph 66% 0 in 0.00 W/m2 unknown
04:49 39.2 °F 28.4 °F 30.2 in ENE 5.6 mph 8.1 mph 66% 0 in 0.00 W/m2 unknown
04:54 39.2 °F 28.4 °F 30.2 in ENE 6.2 mph 8.1 mph 66% 0 in 0.00 W/m2 unknown
04:59 39.2 °F 28.4 °F 30.2 in ENE 5 mph 6.8 mph 67% 0 in 0.00 W/m2 unknown
05:04 39.2 °F 28.4 °F 30.2 in ENE 3.7 mph 6.2 mph 67% 0 in 0.00 W/m2 unknown
05:09 39.2 °F 28.4 °F 30.2 in NE 3.7 mph 5 mph 67% 0 in 0.00 W/m2 unknown
05:14 39.2 °F 28.4 °F 30.2 in ENE 3.7 mph 6.2 mph 67% 0 in 0.00 W/m2 unknown
05:19 39.2 °F 28.4 °F 30.2 in ENE 4.3 mph 5 mph 67% 0 in 0.00 W/m2 unknown
05:24 39.2 °F 28.4 °F 30.2 in NE 3.7 mph 5 mph 67% 0 in 0.00 W/m2 unknown
05:29 39.2 °F 28.4 °F 30.2 in ENE 4.3 mph 6.8 mph 67% 0 in 0.00 W/m2 unknown
05:34 39.2 °F 28.4 °F 30.2 in ENE 3.7 mph 6.8 mph 67% 0 in 0.00 W/m2 unknown
05:39 39.2 °F 28.4 °F 30.2 in ENE 3.7 mph 5 mph 68% 0 in 0.00 W/m2 unknown
05:44 39.2 °F 28.4 °F 30.2 in ENE 3.7 mph 5 mph 68% 0 in 0.00 W/m2 unknown
05:49 39.2 °F 28.4 °F 30.2 in ENE 3.1 mph 5 mph 68% 0 in 0.00 W/m2 unknown
05:54 39.2 °F 28.4 °F 30.2 in East 3.1 mph 5 mph 68% 0 in 0.00 W/m2 unknown
05:59 39.2 °F 28.4 °F 30.2 in East 3.1 mph 5 mph 68% 0 in 0.00 W/m2 unknown
06:04 39.2 °F 28.4 °F 30.2 in ENE 2.5 mph 3.7 mph 68% 0 in 0.00 W/m2 unknown
06:09 39.2 °F 28.4 °F 30.2 in East 1.2 mph 3.1 mph 68% 0 in 0.00 W/m2 unknown
06:14 39.2 °F 28.4 °F 30.2 in NE 1.2 mph 2.5 mph 68% 0 in 0.00 W/m2 unknown
06:19 39.2 °F 28.4 °F 30.2 in NNE 1.9 mph 2.5 mph 69% 0 in 0.00 W/m2 unknown
06:24 39.2 °F 28.4 °F 30.2 in North 1.2 mph 2.5 mph 69% 0 in 0.00 W/m2 unknown
06:29 39.2 °F 28.4 °F 30.2 in North 0.6 mph 1.9 mph 69% 0 in 0.00 W/m2 unknown
06:34 39.2 °F 28.4 °F 30.2 in North 1.2 mph 2.5 mph 69% 0 in 0.00 W/m2 unknown
06:39 39.2 °F 28.4 °F 30.2 in North 1.2 mph 1.9 mph 69% 0 in 0.00 W/m2 unknown
06:44 39.2 °F 28.4 °F 30.2 in North 1.2 mph 2.5 mph 69% 0 in 0.00 W/m2 unknown
06:49 39.2 °F 30.2 °F 30.2 in NE 1.9 mph 2.5 mph 70% 0 in 0.00 W/m2 unknown
06:54 37.4 °F 28.4 °F 30.2 in ENE 1.9 mph 3.7 mph 69% 0 in 0.00 W/m2 unknown
06:59 37.4 °F 28.4 °F 30.2 in ENE 1.9 mph 3.7 mph 69% 0 in 0.00 W/m2 unknown
07:04 37.4 °F 28.4 °F 30.2 in ENE 1.9 mph 3.1 mph 69% 0 in 0.00 W/m2 unknown
07:09 37.4 °F 28.4 °F 30.2 in ESE 2.5 mph 3.7 mph 69% 0 in 5.00 W/m2 unknown
07:14 37.4 °F 30.2 °F 30.2 in East 1.9 mph 3.7 mph 71% 0 in 5.00 W/m2 unknown
07:19 37.4 °F 30.2 °F 30.2 in NE 0.6 mph 3.1 mph 71% 0 in 7.00 W/m2 unknown
07:24 37.4 °F 30.2 °F 30.2 in NNE 2.5 mph 3.7 mph 72% 0 in 11.00 W/m2 unknown
07:29 37.4 °F 30.2 °F 30.2 in NNE 1.9 mph 3.7 mph 71% 0 in 11.00 W/m2 unknown
07:34 37.4 °F 30.2 °F 30.2 in ENE 1.9 mph 3.1 mph 71% 0 in 14.00 W/m2 unknown
07:39 37.4 °F 30.2 °F 30.2 in SE 1.9 mph 3.7 mph 71% 0 in 18.00 W/m2 unknown
07:44 37.4 °F 30.2 °F 30.2 in ESE 1.2 mph 3.1 mph 72% 0 in 19.00 W/m2 unknown
07:49 37.4 °F 30.2 °F 30.2 in ESE 1.2 mph 1.9 mph 72% 0 in 23.00 W/m2 unknown
07:54 37.4 °F 30.2 °F 30.2 in ESE 1.2 mph 1.2 mph 71% 0 in 25.00 W/m2 unknown
07:59 39.2 °F 30.2 °F 30.2 in ESE 1.2 mph 2.5 mph 70% 0 in 26.00 W/m2 unknown
08:04 39.2 °F 30.2 °F 30.2 in East 1.9 mph 2.5 mph 71% 0 in 30.00 W/m2 unknown
08:09 37.4 °F 30.2 °F 30.2 in ENE 1.9 mph 3.7 mph 71% 0 in 33.00 W/m2 unknown
08:14 37.4 °F 30.2 °F 30.2 in ENE 1.2 mph 3.1 mph 72% 0 in 37.00 W/m2 unknown
08:19 39.2 °F 30.2 °F 30.2 in East 1.2 mph 2.5 mph 72% 0 in 40.00 W/m2 unknown
08:24 39.2 °F 30.2 °F 30.2 in East 1.2 mph 2.5 mph 72% 0 in 44.00 W/m2 unknown
08:29 39.2 °F 30.2 °F 30.2 in ENE 1.9 mph 3.7 mph 72% 0 in 47.00 W/m2 unknown
08:34 39.2 °F 30.2 °F 30.2 in ENE 2.5 mph 3.7 mph 70% 0 in 54.00 W/m2 unknown
08:39 39.2 °F 30.2 °F 30.2 in ENE 3.1 mph 3.7 mph 68% 0 in 58.00 W/m2 unknown
08:44 39.2 °F 30.2 °F 30.2 in ENE 2.5 mph 3.7 mph 67% 0 in 63.00 W/m2 unknown
08:49 39.2 °F 30.2 °F 30.2 in NE 3.1 mph 5 mph 67% 0 in 72.00 W/m2 unknown
08:54 39.2 °F 28.4 °F 30.2 in NE 3.1 mph 3.7 mph 65% 0 in 81.00 W/m2 unknown
08:59 41 °F 28.4 °F 30.2 in NE 2.5 mph 3.7 mph 64% 0 in 88.00 W/m2 unknown
09:04 41 °F 28.4 °F 30.2 in NE 2.5 mph 3.7 mph 64% 0 in 102.00 W/m2 unknown
09:09 41 °F 28.4 °F 30.2 in ENE 3.7 mph 5 mph 64% 0 in 105.00 W/m2 unknown
09:14 41 °F 28.4 °F 30.2 in ENE 3.7 mph 4.3 mph 63% 0 in 113.00 W/m2 unknown
09:19 41 °F 28.4 °F 30.2 in ENE 3.7 mph 5 mph 63% 0 in 121.00 W/m2 unknown
09:24 41 °F 28.4 °F 30.2 in East 5 mph 6.8 mph 60% 0 in 130.00 W/m2 unknown
09:29 41 °F 28.4 °F 30.2 in East 5 mph 6.8 mph 60% 0 in 144.00 W/m2 unknown
09:34 41 °F 28.4 °F 30.2 in ENE 5.6 mph 6.8 mph 61% 0 in 156.00 W/m2 unknown
09:39 41 °F 28.4 °F 30.2 in ENE 5 mph 6.8 mph 61% 0 in 171.00 W/m2 unknown
09:44 42.8 °F 28.4 °F 30.2 in ENE 3.7 mph 6.2 mph 60% 0 in 192.00 W/m2 unknown
09:49 42.8 °F 28.4 °F 30.2 in NE 4.3 mph 6.2 mph 58% 0 in 197.00 W/m2 unknown
09:54 42.8 °F 28.4 °F 30.2 in ENE 5 mph 6.8 mph 58% 0 in 216.00 W/m2 unknown
09:59 42.8 °F 26.6 °F 30.2 in East 5.6 mph 6.8 mph 55% 0 in 229.00 W/m2 unknown
10:04 42.8 °F 26.6 °F 30.2 in East 5.6 mph 8.1 mph 53% 0 in 267.00 W/m2 unknown
10:09 42.8 °F 26.6 °F 30.2 in ESE 5 mph 8.1 mph 53% 0 in 297.00 W/m2 unknown
10:14 42.8 °F 26.6 °F 30.2 in ESE 5 mph 8.1 mph 52% 0 in 309.00 W/m2 unknown
10:19 42.8 °F 26.6 °F 30.2 in SE 6.2 mph 8.1 mph 50% 0 in 304.00 W/m2 unknown
10:24 44.6 °F 26.6 °F 30.2 in East 6.8 mph 8.7 mph 52% 0 in 378.00 W/m2 unknown
10:29 44.6 °F 26.6 °F 30.2 in East 6.8 mph 9.3 mph 51% 0 in 383.00 W/m2 unknown
10:34 44.6 °F 26.6 °F 30.3 in ESE 7.5 mph 10.6 mph 49% 0 in 339.00 W/m2 unknown
10:39 44.6 °F 26.6 °F 30.3 in ESE 11.2 mph 16.2 mph 49% 0 in 343.00 W/m2 unknown
10:44 44.6 °F 26.6 °F 30.3 in ESE 8.7 mph 16.2 mph 49% 0 in 394.00 W/m2 unknown
10:49 44.6 °F 26.6 °F 30.3 in ESE 8.7 mph 11.8 mph 50% 0 in 394.00 W/m2 unknown
10:54 44.6 °F 26.6 °F 30.3 in East 6.8 mph 11.8 mph 49% 0 in 387.00 W/m2 unknown
10:59 44.6 °F 26.6 °F 30.3 in ESE 7.5 mph 10.6 mph 49% 0 in 424.00 W/m2 unknown
11:04 44.6 °F 26.6 °F 30.3 in ESE 8.1 mph 11.8 mph 49% 0 in 392.00 W/m2 unknown
11:09 44.6 °F 26.6 °F 30.2 in ESE 7.5 mph 11.8 mph 50% 0 in 436.00 W/m2 unknown
11:14 46.4 °F 26.6 °F 30.2 in SE 3.7 mph 8.7 mph 49% 0 in 415.00 W/m2 unknown
11:19 46.4 °F 26.6 °F 30.2 in SE 8.1 mph 11.8 mph 49% 0 in 661.00 W/m2 unknown
11:24 46.4 °F 26.6 °F 30.2 in ESE 8.7 mph 11.8 mph 47% 0 in 661.00 W/m2 unknown
11:29 46.4 °F 26.6 °F 30.2 in SE 11.2 mph 14.9 mph 47% 0 in 661.00 W/m2 unknown
11:34 46.4 °F 26.6 °F 30.2 in ESE 6.2 mph 14.9 mph 46% 0 in 608.00 W/m2 unknown
11:39 46.4 °F 28.4 °F 30.2 in SE 5.6 mph 9.3 mph 48% 0 in 617.00 W/m2 unknown
11:44 46.4 °F 28.4 °F 30.2 in SE 6.2 mph 9.3 mph 47% 0 in 635.00 W/m2 unknown
11:49 46.4 °F 26.6 °F 30.2 in ESE 8.7 mph 13 mph 46% 0 in 617.00 W/m2 unknown
11:54 46.4 °F 28.4 °F 30.2 in ESE 9.9 mph 13 mph 47% 0 in 573.00 W/m2 unknown
11:59 46.4 °F 26.6 °F 30.2 in ESE 8.7 mph 13 mph 46% 0 in 608.00 W/m2 unknown
12:04 46.4 °F 26.6 °F 30.2 in ESE 8.7 mph 11.8 mph 46% 0 in 606.00 W/m2 unknown
12:09 46.4 °F 26.6 °F 30.2 in ENE 8.1 mph 11.8 mph 46% 0 in 606.00 W/m2 unknown
12:14 48.2 °F 28.4 °F 30.2 in NNE 5.6 mph 9.9 mph 47% 0 in 603.00 W/m2 unknown
12:19 48.2 °F 28.4 °F 30.2 in SSE 6.8 mph 9.3 mph 46% 0 in 617.00 W/m2 unknown
12:24 46.4 °F 26.6 °F 30.2 in East 7.5 mph 10.6 mph 44% 0 in 624.00 W/m2 unknown
12:29 48.2 °F 28.4 °F 30.2 in East 10.6 mph 13 mph 46% 0 in 635.00 W/m2 unknown
12:34 48.2 °F 26.6 °F 30.2 in ESE 8.7 mph 13 mph 45% 0 in 633.00 W/m2 unknown
12:39 48.2 °F 26.6 °F 30.2 in ENE 9.9 mph 11.8 mph 45% 0 in 633.00 W/m2 unknown
12:44 48.2 °F 26.6 °F 30.2 in ENE 6.8 mph 11.8 mph 43% 0 in 635.00 W/m2 unknown
12:49 48.2 °F 26.6 °F 30.2 in ESE 7.5 mph 9.3 mph 43% 0 in 631.00 W/m2 unknown
12:54 48.2 °F 26.6 °F 30.2 in South 3.1 mph 4.3 mph 46% 0 in 638.00 W/m2 unknown
12:59 48.2 °F 26.6 °F 30.2 in SSE 3.1 mph 5 mph 44% 0 in 640.00 W/m2 unknown
13:04 48.2 °F 26.6 °F 30.2 in WSW 2.5 mph 3.7 mph 43% 0 in 633.00 W/m2 unknown
13:09 48.2 °F 26.6 °F 30.2 in NW 3.1 mph 3.7 mph 42% 0 in 619.00 W/m2 unknown
13:14 48.2 °F 26.6 °F 30.2 in East 7.5 mph 8.1 mph 43% 0 in 628.00 W/m2 unknown
13:19 48.2 °F 26.6 °F 30.2 in ESE 6.8 mph 8.1 mph 43% 0 in 621.00 W/m2 unknown
13:24 48.2 °F 28.4 °F 30.2 in NNE 3.7 mph 8.1 mph 45% 0 in 622.00 W/m2 unknown
13:29 48.2 °F 26.6 °F 30.2 in East 6.2 mph 9.3 mph 43% 0 in 622.00 W/m2 unknown
13:34 48.2 °F 26.6 °F 30.2 in ENE 6.2 mph 8.7 mph 43% 0 in 621.00 W/m2 unknown
13:39 48.2 °F 28.4 °F 30.2 in NNE 4.3 mph 5 mph 45% 0 in 629.00 W/m2 unknown
13:44 50 °F 28.4 °F 30.2 in North 3.1 mph 5 mph 45% 0 in 619.00 W/m2 unknown
13:49 50 °F 30.2 °F 30.2 in NE 5.6 mph 6.8 mph 45% 0 in 621.00 W/m2 unknown
13:54 50 °F 26.6 °F 30.2 in SE 3.7 mph 6.8 mph 42% 0 in 626.00 W/m2 unknown
13:59 48.2 °F 26.6 °F 30.2 in East 4.3 mph 6.8 mph 45% 0 in 613.00 W/m2 unknown
14:04 48.2 °F 28.4 °F 30.2 in ESE 4.3 mph 6.8 mph 45% 0 in 592.00 W/m2 unknown
14:09 48.2 °F 28.4 °F 30.2 in SE 2.5 mph 6.2 mph 45% 0 in 599.00 W/m2 unknown
14:14 50 °F 30.2 °F 30.2 in NE 2.5 mph 3.7 mph 48% 0 in 605.00 W/m2 unknown
14:19 50 °F 28.4 °F 30.2 in NNE 4.3 mph 6.2 mph 44% 0 in 596.00 W/m2 unknown
14:24 50 °F 28.4 °F 30.2 in NE 6.8 mph 10.6 mph 43% 0 in 573.00 W/m2 unknown
14:29 50 °F 26.6 °F 30.2 in NE 6.2 mph 9.9 mph 41% 0 in 580.00 W/m2 unknown
14:34 50 °F 28.4 °F 30.2 in NE 5.6 mph 8.1 mph 43% 0 in 582.00 W/m2 unknown
14:39 50 °F 28.4 °F 30.2 in East 6.2 mph 8.1 mph 44% 0 in 561.00 W/m2 unknown
14:44 50 °F 26.6 °F 30.2 in ESE 6.2 mph 8.1 mph 43% 0 in 543.00 W/m2 unknown
14:49 48.2 °F 26.6 °F 30.2 in East 5.6 mph 6.8 mph 43% 0 in 519.00 W/m2 unknown
14:54 50 °F 28.4 °F 30.2 in East 3.1 mph 5 mph 45% 0 in 504.00 W/m2 unknown
14:59 50 °F 28.4 °F 30.2 in ENE 7.5 mph 8.7 mph 45% 0 in 496.00 W/m2 unknown
15:04 50 °F 26.6 °F 30.2 in ENE 7.5 mph 9.3 mph 42% 0 in 473.00 W/m2 unknown
15:09 50 °F 28.4 °F 30.2 in ENE 4.3 mph 8.7 mph 46% 0 in 466.00 W/m2 unknown
15:14 50 °F 28.4 °F 30.2 in ESE 5 mph 6.2 mph 43% 0 in 454.00 W/m2 unknown
15:19 50 °F 28.4 °F 30.2 in WSW 5 mph 6.2 mph 43% 0 in 436.00 W/m2 unknown
15:24 50 °F 28.4 °F 30.2 in WNW 4.3 mph 6.2 mph 43% 0 in 434.00 W/m2 unknown
15:29 50 °F 28.4 °F 30.2 in West 5 mph 6.8 mph 42% 0 in 415.00 W/m2 unknown
15:34 50 °F 28.4 °F 30.2 in West 5 mph 6.8 mph 42% 0 in 404.00 W/m2 unknown
15:39 50 °F 28.4 °F 30.2 in WSW 5 mph 6.2 mph 42% 0 in 390.00 W/m2 unknown
15:44 50 °F 26.6 °F 30.2 in WSW 2.5 mph 6.2 mph 42% 0 in 374.00 W/m2 unknown
15:49 50 °F 28.4 °F 30.2 in WSW 3.1 mph 5 mph 43% 0 in 357.00 W/m2 unknown
15:54 50 °F 28.4 °F 30.2 in NW 3.1 mph 5 mph 43% 0 in 348.00 W/m2 unknown
15:59 50 °F 28.4 °F 30.2 in NNW 3.7 mph 5 mph 42% 0 in 341.00 W/m2 unknown
16:04 50 °F 26.6 °F 30.2 in NW 1.2 mph 5 mph 42% 0 in 325.00 W/m2 unknown
16:09 50 °F 28.4 °F 30.2 in SSW 3.1 mph 5 mph 43% 0 in 311.00 W/m2 unknown
16:14 50 °F 28.4 °F 30.2 in WSW 5 mph 6.2 mph 44% 0 in 299.00 W/m2 unknown
16:19 50 °F 26.6 °F 30.2 in WNW 5 mph 6.2 mph 42% 0 in 285.00 W/m2 unknown
16:24 50 °F 28.4 °F 30.2 in NW 1.9 mph 6.2 mph 44% 0 in 272.00 W/m2 unknown
16:29 50 °F 28.4 °F 30.2 in West 4.3 mph 6.8 mph 44% 0 in 260.00 W/m2 unknown
16:34 50 °F 28.4 °F 30.2 in WSW 5 mph 6.8 mph 43% 0 in 244.00 W/m2 unknown
16:39 50 °F 28.4 °F 30.2 in South 4.3 mph 6.8 mph 44% 0 in 229.00 W/m2 unknown
16:44 48.2 °F 26.6 °F 30.2 in WSW 4.3 mph 6.2 mph 42% 0 in 214.00 W/m2 unknown
16:49 48.2 °F 26.6 °F 30.2 in WSW 1.9 mph 6.2 mph 42% 0 in 200.00 W/m2 unknown
16:54 48.2 °F 26.6 °F 30.2 in WSW 3.7 mph 5 mph 42% 0 in 186.00 W/m2 unknown
16:59 50 °F 26.6 °F 30.2 in SSW 2.5 mph 5 mph 42% 0 in 169.00 W/m2 unknown
17:04 48.2 °F 26.6 °F 30.2 in WSW 1.9 mph 3.7 mph 43% 0 in 151.00 W/m2 unknown
17:09 48.2 °F 26.6 °F 30.2 in West 2.5 mph 3.7 mph 43% 0 in 135.00 W/m2 unknown
17:14 48.2 °F 26.6 °F 30.2 in West 2.5 mph 3.7 mph 43% 0 in 123.00 W/m2 unknown
17:19 48.2 °F 28.4 °F 30.2 in WSW 3.7 mph 3.7 mph 44% 0 in 109.00 W/m2 unknown
17:24 48.2 °F 28.4 °F 30.2 in WSW 3.7 mph 5 mph 44% 0 in 91.00 W/m2 unknown
17:29 48.2 °F 28.4 °F 30.2 in WSW 4.3 mph 5 mph 44% 0 in 77.00 W/m2 unknown
17:34 48.2 °F 28.4 °F 30.2 in WSW 3.7 mph 5 mph 45% 0 in 65.00 W/m2 unknown
17:39 48.2 °F 28.4 °F 30.2 in WSW 3.7 mph 5 mph 46% 0 in 53.00 W/m2 unknown
17:44 48.2 °F 28.4 °F 30.2 in WSW 3.1 mph 5 mph 47% 0 in 42.00 W/m2 unknown
17:49 48.2 °F 28.4 °F 30.2 in WSW 3.1 mph 3.7 mph 48% 0 in 32.00 W/m2 unknown
17:54 46.4 °F 28.4 °F 30.2 in WSW 2.5 mph 3.7 mph 47% 0 in 21.00 W/m2 unknown
17:59 46.4 °F 28.4 °F 30.2 in SW 3.1 mph 5 mph 48% 0 in 14.00 W/m2 unknown
18:04 46.4 °F 28.4 °F 30.2 in WSW 3.1 mph 5 mph 48% 0 in 7.00 W/m2 unknown
18:09 46.4 °F 26.6 °F 30.2 in WSW 2.5 mph 5 mph 49% 0 in 5.00 W/m2 unknown
18:14 44.6 °F 26.6 °F 30.2 in WSW 2.5 mph 3.7 mph 50% 0 in 0.00 W/m2 unknown
18:19 44.6 °F 26.6 °F 30.2 in WSW 2.5 mph 3.7 mph 51% 0 in 0.00 W/m2 unknown
18:24 44.6 °F 26.6 °F 30.2 in West 1.9 mph 3.7 mph 51% 0 in 0.00 W/m2 unknown
18:29 44.6 °F 28.4 °F 30.2 in West 1.2 mph 3.1 mph 51% 0 in 0.00 W/m2 unknown
18:34 44.6 °F 26.6 °F 30.2 in West 1.2 mph 2.5 mph 51% 0 in 0.00 W/m2 unknown
18:39 44.6 °F 26.6 °F 30.2 in West 1.9 mph 2.5 mph 52% 0 in 0.00 W/m2 unknown
18:44 44.6 °F 26.6 °F 30.2 in West 1.2 mph 2.5 mph 52% 0 in 0.00 W/m2 unknown
18:49 42.8 °F 26.6 °F 30.2 in WSW 1.9 mph 2.5 mph 53% 0 in 0.00 W/m2 unknown
18:54 42.8 °F 26.6 °F 30.2 in WSW 1.2 mph 2.5 mph 53% 0 in 0.00 W/m2 unknown
18:59 42.8 °F 26.6 °F 30.2 in WSW 1.9 mph 2.5 mph 54% 0 in 0.00 W/m2 unknown
19:04 42.8 °F 26.6 °F 30.2 in WSW 1.9 mph 2.5 mph 54% 0 in 0.00 W/m2 unknown
19:09 42.8 °F 26.6 °F 30.2 in WSW 1.2 mph 2.5 mph 54% 0 in 0.00 W/m2 unknown
19:14 42.8 °F 26.6 °F 30.2 in WSW 1.2 mph 1.9 mph 55% 0 in 0.00 W/m2 unknown
19:19 42.8 °F 26.6 °F 30.2 in WSW 1.2 mph 2.5 mph 55% 0 in 0.00 W/m2 unknown
19:24 41 °F 26.6 °F 30.2 in WSW 1.9 mph 2.5 mph 55% 0 in 0.00 W/m2 unknown
19:29 41 °F 26.6 °F 30.2 in West 1.9 mph 2.5 mph 55% 0 in 0.00 W/m2 unknown
19:34 41 °F 26.6 °F 30.2 in West 1.9 mph 3.7 mph 56% 0 in 0.00 W/m2 unknown
19:39 41 °F 26.6 °F 30.2 in West 1.9 mph 3.1 mph 56% 0 in 0.00 W/m2 unknown
19:44 41 °F 26.6 °F 30.2 in West 1.9 mph 3.7 mph 57% 0 in 0.00 W/m2 unknown
19:49 41 °F 26.6 °F 30.2 in West 2.5 mph 3.7 mph 57% 0 in 0.00 W/m2 unknown
19:54 41 °F 26.6 °F 30.2 in West 2.5 mph 3.7 mph 57% 0 in 0.00 W/m2 unknown
19:59 41 °F 26.6 °F 30.2 in West 1.9 mph 3.7 mph 58% 0 in 0.00 W/m2 unknown
20:04 39.2 °F 26.6 °F 30.2 in West 2.5 mph 3.7 mph 59% 0 in 0.00 W/m2 unknown
20:09 39.2 °F 26.6 °F 30.2 in West 2.5 mph 3.7 mph 59% 0 in 0.00 W/m2 unknown
20:14 39.2 °F 26.6 °F 30.2 in West 2.5 mph 3.7 mph 60% 0 in 0.00 W/m2 unknown
20:19 39.2 °F 26.6 °F 30.2 in WNW 2.5 mph 3.7 mph 62% 0 in 0.00 W/m2 unknown
20:24 39.2 °F 26.6 °F 30.2 in WNW 2.5 mph 3.7 mph 62% 0 in 0.00 W/m2 unknown
20:29 39.2 °F 26.6 °F 30.2 in WNW 3.1 mph 3.7 mph 61% 0 in 0.00 W/m2 unknown
20:34 37.4 °F 26.6 °F 30.2 in West 2.5 mph 3.7 mph 64% 0 in 0.00 W/m2 unknown
20:39 37.4 °F 26.6 °F 30.2 in West 2.5 mph 3.7 mph 64% 0 in 0.00 W/m2 unknown
20:44 37.4 °F 26.6 °F 30.2 in West 1.9 mph 3.1 mph 64% 0 in 0.00 W/m2 unknown
20:49 37.4 °F 26.6 °F 30.2 in WNW 1.9 mph 3.7 mph 64% 0 in 0.00 W/m2 unknown
20:54 37.4 °F 26.6 °F 30.2 in WNW 1.9 mph 3.7 mph 63% 0 in 0.00 W/m2 unknown
20:59 37.4 °F 26.6 °F 30.2 in WNW 2.5 mph 3.7 mph 64% 0 in 0.00 W/m2 unknown
21:04 37.4 °F 24.8 °F 30.2 in WNW 2.5 mph 3.7 mph 64% 0 in 0.00 W/m2 unknown
21:09 35.6 °F 24.8 °F 30.2 in WNW 1.9 mph 3.7 mph 65% 0 in 0.00 W/m2 unknown
21:14 35.6 °F 24.8 °F 30.2 in WNW 2.5 mph 3.7 mph 65% 0 in 0.00 W/m2 unknown
21:19 35.6 °F 24.8 °F 30.2 in WNW 2.5 mph 3.7 mph 65% 0 in 0.00 W/m2 unknown
21:24 35.6 °F 24.8 °F 30.2 in WNW 2.5 mph 3.7 mph 65% 0 in 0.00 W/m2 unknown
21:29 35.6 °F 24.8 °F 30.2 in WNW 1.9 mph 3.7 mph 65% 0 in 0.00 W/m2 unknown
21:34 35.6 °F 24.8 °F 30.2 in WNW 2.5 mph 3.7 mph 65% 0 in 0.00 W/m2 unknown
21:39 35.6 °F 24.8 °F 30.2 in WNW 2.5 mph 3.7 mph 65% 0 in 0.00 W/m2 unknown
21:44 35.6 °F 24.8 °F 30.2 in WNW 2.5 mph 3.7 mph 66% 0 in 0.00 W/m2 unknown
21:49 35.6 °F 24.8 °F 30.2 in WNW 1.9 mph 3.7 mph 67% 0 in 0.00 W/m2 unknown
21:54 35.6 °F 24.8 °F 30.2 in WNW 1.9 mph 3.7 mph 67% 0 in 0.00 W/m2 unknown
21:59 35.6 °F 24.8 °F 30.2 in WNW 1.9 mph 3.1 mph 67% 0 in 0.00 W/m2 unknown
22:04 35.6 °F 24.8 °F 30.2 in WNW 1.9 mph 2.5 mph 67% 0 in 0.00 W/m2 unknown
22:09 33.8 °F 24.8 °F 30.2 in WNW 1.9 mph 3.7 mph 68% 0 in 0.00 W/m2 unknown
22:14 35.6 °F 24.8 °F 30.2 in WNW 1.9 mph 3.7 mph 68% 0 in 0.00 W/m2 unknown
22:19 35.6 °F 24.8 °F 30.2 in WNW 1.9 mph 3.7 mph 68% 0 in 0.00 W/m2 unknown
22:24 35.6 °F 24.8 °F 30.2 in WNW 1.9 mph 3.7 mph 68% 0 in 0.00 W/m2 unknown
22:29 35.6 °F 24.8 °F 30.2 in WNW 1.2 mph 3.1 mph 68% 0 in 0.00 W/m2 unknown
22:34 33.8 °F 24.8 °F 30.2 in WNW 1.9 mph 2.5 mph 68% 0 in 0.00 W/m2 unknown
22:39 33.8 °F 24.8 °F 30.2 in WNW 1.9 mph 2.5 mph 69% 0 in 0.00 W/m2 unknown
22:44 33.8 °F 24.8 °F 30.2 in WNW 1.9 mph 3.1 mph 70% 0 in 0.00 W/m2 unknown
22:49 33.8 °F 24.8 °F 30.2 in West 2.5 mph 3.7 mph 71% 0 in 0.00 W/m2 unknown
22:54 32 °F 23 °F 30.2 in West 2.5 mph 3.7 mph 72% 0 in 0.00 W/m2 unknown
22:59 32 °F 24.8 °F 30.2 in West 2.5 mph 3.7 mph 72% 0 in 0.00 W/m2 unknown
23:04 32 °F 24.8 °F 30.2 in West 2.5 mph 3.7 mph 72% 0 in 0.00 W/m2 unknown
23:09 33.8 °F 24.8 °F 30.2 in West 2.5 mph 3.7 mph 72% 0 in 0.00 W/m2 unknown
23:14 33.8 °F 24.8 °F 30.2 in West 3.1 mph 3.7 mph 71% 0 in 0.00 W/m2 unknown
23:19 33.8 °F 24.8 °F 30.2 in West 3.1 mph 3.7 mph 71% 0 in 0.00 W/m2 unknown
23:24 33.8 °F 24.8 °F 30.2 in WSW 3.1 mph 3.7 mph 71% 0 in 0.00 W/m2 unknown
23:29 32 °F 24.8 °F 30.2 in West 3.1 mph 3.7 mph 72% 0 in 0.00 W/m2 unknown
23:34 33.8 °F 24.8 °F 30.2 in West 3.1 mph 3.7 mph 71% 0 in 0.00 W/m2 unknown
23:39 33.8 °F 24.8 °F 30.2 in West 3.1 mph 3.7 mph 71% 0 in 0.00 W/m2 unknown
23:44 32 °F 24.8 °F 30.2 in West 3.1 mph 3.7 mph 72% 0 in 0.00 W/m2 unknown
23:49 32 °F 24.8 °F 30.2 in West 2.5 mph 3.7 mph 73% 0 in 0.00 W/m2 unknown
23:54 32 °F 24.8 °F 30.2 in West 2.5 mph 3.7 mph 73% 0 in 0.00 W/m2 unknown
23:59 32 °F 24.8 °F 30.2 in WSW 3.1 mph 3.7 mph 73% 0 in 0.00 W/m2 unknown
Stazione Meteorologica MeteoMincio Rivalta s/M (MN)
Con i complimenti di Weather Underground - 4 mb



METEO PILLOLE
Maggior quantità di pioggia caduta in un ora
Holt (263.11 m), Missouri - USA
il 22 giugno 1947 caddero 305mm.
Share

Non seguire questo link o sarai bannato dal sito!